{"data":{"norad_id":43804,"epoch":"2026-05-25T03:45:49.925376Z","epoch_age_seconds":51578,"freshness":"FRESH","line1":"1 43804U 18099AY  26145.15682784  .00011551  00000+0  42736-3 0  9992","line2":"2 43804  97.4207 205.6440 0009770  12.2176 347.9298 15.27802727409908","mean_motion":15.27802727,"eccentricity":0.000977,"inclination_deg":97.4207,"raan_deg":205.644,"arg_perigee_deg":12.2176,"mean_anomaly_deg":347.9298,"bstar":0.00042736,"rev_number":40990,"period_min":94.253006265252,"perigee_km":475.67952498952,"apogee_km":489.08497960851,"semimajor_km":6860.519252299,"source":"CELESTRAK","updated_at":"2026-05-25T13:37:55.899919Z"}}